SCP
0 0 0 0 0 0 0 0 0 0 0 0 0 0 0 0 0 0 0 0 0 0 0 0 0 0 0 0 0 0 0 0 0 0 0 0 0 0 0 0 0 0 0
0 0 0 0 0 0 0 0 0 0 0 0 0 0 0 0 0 0 0 0 0 0 0 0 0 0 0 0 0 0 0 0 0 0 0 0 0 0 0 0 0 0 0
0 0 0 0 0 0 0 0 0 0 0 0 0 0 0 0 0 0 0 0 0 0 0 0 0 0 0 0 0 0 0 0 0 0 0 0 0 0 0 0 0 0 0
0 0 0 0 0 0 0 0 0 0 0 0 0 0 0 0 0 0 0 0 0 0 0 0 0 0 0 0 0 0 0 0 0 0 0 0 0 0 0 0 0 0 0
0 0 0 0 0 0 0 0 0 0 0 0 0 0 0 0 0 0 0 0 0 0 0 0 0 0 0 0 0 0 0 0 0 0 0 0 0 0 0 0 0 0 0
0 0 0 0 0 0 0 0 0 0 0 0 0 0 0 0 0 0 0 0 0 0 0 0 0 0 0 0 0 0 0 0 0 0 0 0 0 0 0 0 0 0 0
0 0 0 0 0 0 0 0 0 0 0 0 0 0 0 0 0 0 0 0 0 0 0 0 0 0 0 0 0 0 0 0 0 0 0 0 0 0 0 0 0 0 0
0 0 0 0 0 0 0 0 0 0 0 0 0 0 0 0 0 0 0 0 0 0 0 0 0 0 0 0 0 0 0 0 0 0 0 0 0 0 0 0 0 0 0
0 0 0 0 0 0 0 0 0 0 0 0 0 0 0 0 0 0 0 0 0 0 0 0 0 0 0 0 0 0 0 0 0 0 0 0 0 0 0 0 0 0 0
0 0 0 0 0 0 0 0 0 0 0 0 0 0 0 0 0 0 0 0 0 0 0 0 0 0 0 0 0 0 0 0 0 0 0 0 0 0 0 0 0 0 0
0 0 0 0 0 0 0 0 0 0 0 0 0 0 0 0 0 0 0 0 0 0 0 0 0 0 0 0 0 0 0 0 0 0 0 0 0 0 0 0 0 0 0
0 0 0 0 0 0 0 0 0 0 0 0 0 0 0 0 0 0 0 0 0 0 0 0 0 0 0 0 0 0 0 0 0 0 0 0 0 0 0 0 0 0 0
0 0 0 0 0 0 0 0 0 0 0 0 0 0 0 0 0 0 0 0 0 0 0 0 0 0 0 0 0 0 0 0 0 0 0 0 0 0 0 0 0 0 0
0 0 0 0 0 0 0 0 0 0 0 0 0 0 0 0 0 0 0 0 0 0 0 0 0 0 0 0 0 0 0 0 0 0 0 0 0 0 0 0 0 0 0
0 0 0 0 0 0 0 0 0 0 0 0 0 0 0 0 0 0 0 0 0 0 0 0 0 0 0 0 0 0 0 0 0 0 0 0 0 0 0 0 0 0 0
0 0 0 0 0 0 0 0 0 0 0 0 0 0 0 0 0 0 0 0 0 0 0 0 0 0 0 0 0 0 0 0 0 0 0 0 0 0 0 0 0 0 0
0 0 0 0 0 0 0 0 0 0 0 0 0 0 0 0 0 0 0 0 0 0 0 0 0 0 0 0 0 0 0 0 0 0 0 0 0 0 0 0 0 0 0
0 0 0 0 0 0 0 0 0 0 0 0 0 0 0 0 0 0 0 0 0 0 0 0 0 0 0 0 0 0 0 0 0 0 0 0 0 0 0 0 0 0 0
0 0 0 0 0 0 0 0 0 0 0 0 0 0 0 0 0 0 0 0 0 0 0 0 0 0 0 0 0 0 0 0 0 0 0 0 0 0 0 0 0 0 0
0 0 0 0 0 0 0 0 0 0 0 0 0 0 0 0 0 0 0 0 0 0 0 0 0 0 0 0 0 0 0 0 0 0 0 0 0 0 0 0 0 0 0
0 0 0 0 0 0 0 0 0 0 0 0 0 0 0 0 0 0 0 0 0 0 0 0 0 0 0 0 0 0 0 0 0 0 0 0 0 0 0 0 0 0 0
0 0 0 0 0 0 0 0 0 0 0 0 0 0 0 0 0 0 0 0 0 0 0 0 0 0 0 0 0 0 0 0 0 0 0 0 0 0 0 0 0 0 0
0 0 0 0 0 0 0 0 0 0 0 0 0 0 0 0 0 0 0 0 0 0 0 0 0 0 0 0 0 0 0 0 0 0 0 0 0 0 0 0 0 0 0
0 0 0 0 0 0 0 0 0 0 0 0 0 0 0 0 0 0 0 0 0 0 0 0 0 0 0 0 0 0 0 0 0 0 0 0 0 0 0 0 0 0 0
0 0 0 0 0 0 0 0 0 0 0 0 0 0 0 0 0 0 0 0 0 0 0 0 0 0 0 0 0 0 0 0 0 0 0 0 0 0 0 0 0 0 0
0 0 0 0 0 0 0 0 0 0 0 0 0 0 0 0 0 0 0 0 0 0 0 0 0 0 0 0 0 0 0 0 0 0 0 0 0 0 0 0 0 0 0
Wind_Speed
5 4 3 3 3 2 2 1 1 0 0 1 1 1 1 1 1 1 2 2 2 3 3 3 4 4 3 3 3 3 3 3 6 7 4 4 5 6 6 5 5 5 4
4 4 4 3 3 3 2 2 1 1 1 1 1 1 1 1 2 2 2 2 2 3 3 3 4 3 4 3 3 4 4 4 5 8 7 5 5 5 6 6 6 6 4
4 4 4 4 4 4 3 2 2 2 2 1 1 1 2 2 2 2 2 3 3 3 3 3 4 3 4 3 3 4 4 5 4 6 7 6 5 4 5 6 6 5 5
5 4 4 4 4 4 3 3 3 2 2 2 2 2 2 2 2 2 2 3 3 3 3 3 3 3 4 4 3 4 4 5 5 5 6 6 5 5 4 5 6 5 5
5 5 5 4 3 3 3 2 2 2 2 2 2 2 2 2 2 2 3 3 3 3 4 3 3 3 5 4 4 4 4 4 5 5 6 6 6 5 5 5 6 7 5
6 5 4 4 3 3 3 2 2 2 2 2 2 2 2 2 4 4 3 3 3 3 4 4 4 4 4 6 7 7 6 5 5 5 5 6 7 6 5 5 6 6 6
6 5 5 4 4 4 4 3 3 3 3 3 3 2 3 3 4 4 4 3 3 3 4 4 4 4 4 4 5 7 6 8 8 6 6 7 7 6 6 6 6 7 7
6 5 5 5 5 4 4 4 3 3 3 2 3 2 3 3 5 5 4 3 2 3 3 3 4 4 4 5 4 4 4 5 6 5 5 6 5 5 5 5 6 6 6
6 6 5 5 5 5 5 4 3 3 2 2 2 2 3 4 4 5 4 2 2 3 3 3 3 3 6 7 5 4 5 5 7 8 8 7 8 9 7 3 4 4 5
6 5 5 5 5 5 5 4 2 3 3 2 2 2 3 3 4 4 3 2 2 3 3 3 3 4 6 6 4 3 5 5 5 6 6 7 6 6 7 3 3 3 4
4 4 4 4 5 4 3 3 3 2 2 2 3 2 2 3 4 4 4 2 2 3 3 2 2 5 6 6 5 3 5 5 4 4 4 4 4 3 4 3 3 3 4
4 4 4 4 4 3 4 3 3 3 3 3 3 3 2 2 3 4 5 4 3 3 3 2 2 5 6 6 4 4 6 5 2 3 3 4 4 4 4 4 4 4 4
4 4 4 4 3 4 4 4 3 3 3 3 3 3 2 2 3 5 5 5 4 3 2 3 4 6 5 4 4 5 4 2 2 2 3 4 4 4 4 4 4 3 4
5 5 4 4 4 3 3 4 4 4 4 4 4 3 3 2 2 2 2 2 3 2 2 2 4 4 3 3 2 2 2 1 2 2 3 4 3 3 3 3 3 4 4
5 4 4 4 4 4 4 4 5 5 5 5 4 4 3 3 4 4 2 2 2 2 0 1 1 2 2 2 2 2 1 1 1 2 2 3 3 3 3 3 3 3 3
5 5 4 4 4 4 3 2 4 5 6 7 6 4 3 4 4 4 4 4 3 2 1 0 1 1 2 2 2 2 2 2 2 2 2 3 3 3 4 3 3 3 4
6 5 4 4 4 4 4 4 3 3 5 7 7 7 5 4 4 4 4 3 3 2 1 1 2 2 2 2 2 2 3 3 2 2 3 3 3 3 3 4 4 3 4
5 5 4 4 4 4 5 4 4 3 3 3 5 7 6 5 5 4 3 2 1 2 2 2 2 2 2 2 2 2 2 2 2 2 3 3 3 3 3 4 4 4 5
5 4 4 4 4 4 4 4 4 4 4 3 2 3 4 5 5 4 3 2 2 3 3 3 3 3 2 2 2 2 2 3 3 3 3 3 3 3 3 4 4 5 5
5 5 4 4 4 4 4 5 5 4 4 4 4 3 2 2 3 3 3 3 3 3 3 3 3 3 3 2 2 2 2 3 3 3 3 3 3 3 4 4 4 4 5
4 4 5 4 4 5 5 5 5 5 5 5 4 5 6 4 4 4 4 4 4 4 4 3 3 3 3 2 2 2 3 3 3 3 3 3 3 3 3 4 4 4 4
4 4 4 4 4 4 5 5 5 5 5 5 4 4 7 4 4 4 4 4 4 4 4 3 3 3 3 3 3 3 3 4 4 3 3 4 4 4 4 4 4 4 4
4 4 4 4 4 4 5 4 5 5 5 5 4 4 4 4 4 4 4 4 3 3 3 3 3 3 3 3 3 4 4 5 4 4 4 4 4 4 4 4 5 5 5
5 5 5 4 4 4 5 4 5 5 5 4 4 4 4 4 4 4 4 3 3 3 3 3 3 5 5 4 3 4 4 5 4 4 5 5 5 4 4 4 4 5 5
4 5 5 4 4 4 4 4 4 5 5 5 4 4 4 4 4 4 3 3 3 3 3 3 3 4 5 6 6 5 6 7 6 4 4 4 5 5 5 5 4 4 4
4 4 4 4 4 4 4 4 4 4 4 4 4 4 4 4 4 4 3 3 3 3 3 3 4 5 6 5 6 7 7 7 7 6 4 4 4 4 4 4 5 4 4
Wind_Direction
178 180 179 177 176 178 190 193 193 212 259 270 273 287 296 305 303 290 283 293 295 300 305 303 298 301 299 302 301 290 283 275 277 291 300 307 312 313 315 315 313 310 314
176 178 186 184 181 190 201 201 196 223 243 253 262 271 285 300 302 295 292 295 292 298 299 299 298 306 301 296 296 300 293 284 276 289 300 307 307 310 313 316 316 318 311
169 177 186 189 190 198 201 195 197 217 231 245 252 260 270 277 281 290 287 287 287 289 292 292 296 301 298 297 294 293 296 300 290 287 295 304 304 313 316 314 312 311 315
172 182 192 195 194 197 195 195 205 214 224 238 246 253 260 269 275 288 292 288 286 288 290 286 288 290 284 288 287 288 294 296 295 288 291 299 304 309 311 317 321 323 317
176 188 200 193 181 179 188 199 208 213 228 242 250 260 261 263 266 275 283 285 286 291 295 291 290 288 294 291 289 287 288 284 287 288 289 298 300 312 315 318 313 316 310
180 191 189 182 179 185 190 193 204 217 228 233 240 249 257 262 285 288 291 288 289 290 293 294 293 291 296 305 303 299 295 286 283 285 288 290 295 302 310 310 310 312 311
183 187 183 181 187 192 191 193 205 217 224 232 240 245 254 265 279 288 292 285 275 275 281 292 298 304 299 296 303 310 307 300 292 285 283 286 292 298 304 302 302 302 296
186 189 186 184 191 190 190 202 210 213 220 233 246 251 263 274 281 286 293 283 269 270 273 277 289 300 306 308 309 311 306 306 303 293 283 289 292 296 296 295 299 300 295
192 195 191 187 190 190 197 205 207 210 224 234 244 245 255 269 278 286 291 286 271 273 277 282 288 292 306 314 315 310 310 311 320 318 312 314 318 320 322 320 311 307 301
196 195 188 187 191 196 202 203 201 204 217 227 242 240 245 261 279 285 281 276 278 283 284 279 280 292 307 316 310 303 301 307 319 324 325 325 321 321 324 308 293 291 297
182 178 181 186 191 193 193 195 189 197 206 222 241 247 244 253 273 278 273 260 262 277 282 284 290 304 309 313 312 296 298 315 319 317 317 319 321 322 321 318 306 282 282
166 175 184 187 188 182 181 189 187 190 205 226 239 253 251 250 259 269 267 268 278 270 275 286 298 312 319 322 321 320 327 331 321 314 313 316 319 318 316 315 307 295 277
170 183 187 186 189 186 185 189 191 196 208 223 228 243 253 247 254 259 266 271 277 279 283 298 312 315 323 330 331 330 339 330 313 309 306 305 303 300 307 315 315 307 298
182 190 186 184 190 191 191 193 197 203 209 216 222 233 244 248 242 238 246 259 262 269 288 310 317 323 331 338 334 332 325 298 291 292 297 301 306 310 311 313 312 320 319
189 193 191 189 190 194 199 204 206 211 206 208 214 214 217 236 245 248 245 241 229 229 46 45 0 344 342 336 334 323 306 300 295 291 295 303 308 312 311 314 306 312 304
192 198 195 190 190 189 193 218 227 221 223 227 226 223 232 241 252 246 250 256 251 213 132 176 279 291 294 299 304 310 307 294 288 289 289 290 299 305 309 311 310 306 301
200 201 197 193 191 191 193 202 222 228 225 230 230 232 237 244 247 247 247 256 238 190 176 226 249 259 266 271 275 282 289 292 292 286 283 286 292 297 300 305 309 307 301
202 205 202 201 196 195 198 203 205 209 222 242 237 237 242 248 249 248 240 228 244 223 214 226 242 253 258 262 266 275 286 296 296 289 285 283 285 290 297 300 299 295 297
204 206 202 200 200 198 195 197 201 209 218 229 237 242 238 246 247 243 226 204 221 232 233 237 238 243 251 255 260 266 271 276 281 283 283 282 279 281 284 287 291 295 295
208 206 199 199 201 200 197 199 204 208 214 219 224 220 197 192 216 233 226 221 226 232 228 235 239 238 239 242 249 256 267 272 276 278 281 281 279 276 277 282 285 291 291
204 202 197 200 206 207 206 208 208 207 213 222 227 218 206 201 213 222 227 228 229 233 230 230 235 237 238 237 237 244 253 264 266 269 277 281 281 279 277 276 279 281 285
199 201 202 207 209 211 212 210 207 210 215 221 228 224 219 214 218 221 226 231 232 231 224 221 230 232 228 228 228 234 245 254 259 262 271 279 278 277 278 277 279 283 286
195 199 204 207 210 211 213 214 212 214 216 217 216 214 213 219 224 227 228 229 231 234 225 215 226 240 239 233 227 226 234 243 245 246 255 267 270 268 271 274 279 286 288
197 201 204 207 208 212 215 217 216 215 217 217 217 217 218 221 227 232 235 233 229 230 228 224 228 236 242 247 245 239 240 244 244 243 242 252 260 262 265 270 274 279 283
199 202 204 207 209 213 215 218 219 217 217 218 219 221 221 222 226 229 229 230 230 232 235 236 237 236 239 244 248 250 251 255 252 246 241 244 249 252 257 266 272 279 280
201 203 207 208 211 212 213 217 222 223 223 221 219 219 219 220 225 227 223 223 228 236 240 243 243 244 247 249 249 253 257 259 258 246 234 239 242 249 253 261 265 269 273